GFSFLT1_700_temp_216.txt.gz
Temp
10 10 9 9 8 8 8 8 8 7 7 6 6 5 5 5 6 6 3 3 4 4 3 4 4 2 2 3 2 2 1 2
10 10 10 9 8 8 7 6 7 6 6 6 5 5 5 5 5 5 5 4 3 3 3 3 2 2 2 2 2 2 1 1
10 10 10 9 8 7 7 7 6 5 5 5 5 4 4 4 4 4 3 3 3 3 3 3 3 2 1 1 1 2 1 0
10 10 9 9 8 7 7 7 6 6 5 5 5 4 3 3 3 3 3 3 3 3 2 2 2 2 1 0 1 1 0 -0
10 9 9 9 8 8 7 7 6 6 5 5 4 3 2 2 2 2 2 2 2 1 1 1 1 1 0 -0 -1 -1 -1 -1
9 9 8 7 7 6 6 6 5 5 5 4 3 2 2 2 2 2 2 1 1 1 1 -0 -1 -1 -2 -2 -1 -1 -1 -2
9 8 7 6 6 5 5 5 4 4 4 3 3 3 2 2 1 1 1 1 0 0 -0 -1 -1 -1 -2 -1 -2 -2 -3 -2
8 8 6 6 5 5 4 4 4 3 3 3 2 2 2 1 0 0 -0 -1 -1 -2 -2 -2 -2 -2 -2 -3 -2 -2 -3 -3
7 6 6 5 5 4 4 4 4 3 2 1 1 0 1 0 -0 -1 -2 -2 -3 -3 -2 -2 -2 -3 -3 -3 -3 -3 -3 -4
5 5 5 4 4 4 3 2 1 0 0 1 -0 -1 -2 -2 -1 -2 -3 -3 -3 -3 -3 -2 -3 -3 -4 -5 -4 -4 -4 -4
5 4 3 2 1 0 0 0 0 0 0 0 -1 -2 -3 -3 -3 -3 -3 -4 -3 -3 -3 -3 -3 -3 -4 -5 -5 -5 -4 -5
2 2 1 0 0 0 0 1 0 -0 -1 -1 -2 -3 -3 -3 -3 -3 -4 -4 -4 -4 -4 -4 -4 -4 -4 -5 -5 -5 -5 -5
2 1 1 1 1 1 0 0 0 -2 -2 -3 -3 -3 -3 -3 -4 -3 -4 -4 -4 -5 -5 -5 -5 -5 -6 -6 -6 -5 -6 -5
2 1 1 1 1 0 -0 -0 -1 -2 -3 -4 -4 -3 -4 -4 -4 -4 -4 -4 -5 -5 -5 -5 -5 -5 -6 -6 -6 -6 -6 -6
1 1 0 0 -0 -1 -1 -2 -2 -2 -3 -4 -4 -4 -4 -4 -4 -4 -4 -4 -4 -5 -5 -5 -5 -5 -6 -6 -6 -6 -6 -6
0 0 -0 -0 -1 -2 -2 -2 -3 -3 -3 -5 -6 -5 -5 -4 -4 -5 -5 -4 -4 -5 -5 -5 -5 -5 -6 -6 -6 -6 -6 -6
-1 -1 -1 -1 -1 -2 -2 -3 -3 -4 -5 -5 -5 -6 -5 -5 -5 -5 -6 -7 -6 -5 -5 -5 -5 -5 -6 -6 -6 -6 -6 -7
-1 -2 -2 -2 -2 -2 -3 -3 -3 -5 -6 -6 -6 -7 -6 -6 -6 -7 -7 -7 -7 -6 -6 -5 -5 -5 -5 -6 -6 -6 -6 -6
-2 -2 -2 -2 -2 -2 -3 -4 -6 -7 -7 -7 -6 -6 -6 -6 -6 -6 -7 -7 -6 -6 -6 -6 -6 -5 -6 -6 -6 -6 -6 -6

GFSFLT1_700_temp_219.txt.gz
Temp
10 10 10 9 9 9 8 8 8 7 7 7 6 6 6 6 6 6 5 5 4 3 3 3 2 2 3 2 2 2 3 2
10 10 10 10 9 9 9 8 8 7 7 7 7 6 6 5 5 5 5 5 5 4 1 1 2 2 3 2 2 1 1 1
10 10 10 10 9 9 8 7 6 6 6 6 5 5 5 4 4 4 4 3 3 3 2 2 2 2 2 2 2 1 1 1
11 10 10 9 9 8 7 6 6 6 6 6 5 4 4 4 3 3 3 3 2 2 2 2 2 2 2 1 1 1 1 -0
11 11 9 9 8 7 6 6 6 6 6 5 5 4 4 4 3 3 2 2 2 2 2 1 1 1 -0 -1 -0 -0 -0 -1
10 10 8 7 7 6 6 6 6 6 5 5 5 4 4 3 3 3 3 2 2 1 0 1 0 -0 -1 -1 -2 -2 -2 -2
9 8 7 7 6 6 6 6 6 5 5 4 4 4 4 3 2 2 2 1 1 0 -0 -0 -1 -2 -2 -2 -2 -2 -3 -2
8 7 6 6 6 6 5 5 5 4 4 3 3 3 3 1 2 1 2 0 -1 -1 -1 -1 -2 -2 -2 -2 -2 -3 -3 -2
7 6 5 5 5 5 4 4 4 4 4 4 3 2 1 1 1 1 1 -1 -2 -2 -3 -3 -3 -3 -3 -3 -3 -3 -4 -4
6 6 6 6 5 5 4 4 4 4 3 3 1 0 0 -0 -1 -1 -2 -2 -3 -4 -4 -3 -3 -3 -3 -4 -4 -4 -4 -4
6 6 5 5 4 4 4 3 3 2 1 0 0 -0 -0 -1 -2 -2 -2 -2 -3 -4 -4 -4 -4 -4 -4 -4 -4 -4 -4 -5
5 5 4 4 3 3 2 1 0 0 0 0 -0 -1 -1 -2 -2 -3 -3 -3 -4 -4 -4 -4 -4 -4 -4 -4 -5 -5 -5 -6
4 3 3 3 2 1 0 0 0 -0 -0 -0 -1 -2 -2 -3 -3 -4 -4 -4 -4 -4 -4 -5 -5 -5 -5 -5 -6 -6 -6 -7
3 3 2 1 1 0 0 -0 -0 -0 -1 -2 -2 -3 -3 -4 -4 -4 -5 -4 -4 -4 -4 -5 -5 -5 -5 -6 -6 -6 -6 -6
2 2 2 1 1 0 0 -1 -1 -1 -2 -3 -3 -3 -3 -4 -5 -5 -5 -5 -5 -5 -5 -5 -6 -5 -5 -6 -6 -6 -6 -6
2 2 1 1 0 -0 -1 -1 -2 -2 -3 -3 -3 -3 -3 -4 -5 -5 -6 -6 -6 -6 -6 -6 -6 -5 -5 -7 -6 -6 -6 -6
1 1 1 -0 -1 -1 -2 -2 -3 -3 -3 -2 -2 -2 -3 -5 -6 -6 -6 -6 -6 -6 -6 -7 -7 -6 -6 -6 -6 -6 -6 -6
0 -0 -1 -1 -1 -2 -2 -3 -3 -3 -2 -3 -4 -5 -6 -6 -6 -6 -6 -7 -6 -6 -6 -7 -6 -7 -7 -6 -6 -6 -5 -6
-1 -1 -1 -2 -2 -3 -3 -3 -2 -2 -2 -4 -5 -6 -6 -6 -6 -6 -6 -7 -6 -6 -6 -7 -7 -7 -7 -6 -7 -7 -7 -6

GFSFLT1_700_temp_225.txt.gz
Temp
10 10 10 10 9 9 9 9 9 9 8 7 7 7 7 7 7 6 6 5 5 4 4 3 3 4 3 3 3 3 3 2
10 10 10 10 10 9 9 9 9 8 8 7 6 7 7 6 6 5 5 4 4 3 3 3 2 2 2 2 2 2 2 2
10 10 10 10 10 9 9 9 8 8 7 7 7 6 6 6 5 5 4 4 3 2 2 2 2 2 2 2 2 1 1 1
11 11 10 10 10 10 9 9 8 8 7 7 6 6 6 4 4 4 4 3 2 2 2 2 2 2 2 2 1 1 1 1
10 11 11 11 10 10 10 9 8 7 7 6 6 5 5 4 4 3 3 2 2 2 2 1 1 1 1 1 0 0 0 0
11 10 10 10 10 10 10 8 7 6 6 6 5 5 4 4 3 3 2 2 2 2 1 1 1 1 1 -0 -1 -1 -1 -1
10 10 9 9 9 9 9 8 6 6 5 5 5 5 4 3 3 2 2 2 2 1 0 0 0 0 -0 -1 -1 -1 -1 -2
9 9 9 9 9 8 8 7 6 5 5 5 4 4 3 3 3 2 2 1 1 -0 -0 -0 -0 0 0 0 -1 -2 -2 -3
8 9 8 8 8 7 7 5 5 5 4 4 4 3 3 3 2 2 1 0 -1 -1 -1 -1 -0 -0 -0 -1 -2 -3 -3 -4
8 8 8 7 7 6 5 5 5 4 4 3 3 3 2 2 2 1 -0 -1 -1 -1 -1 -1 -1 -1 -2 -2 -3 -4 -4 -5
8 7 7 6 6 6 5 5 4 4 3 3 2 2 2 1 -0 -1 -1 -2 -2 -2 -2 -1 -2 -3 -3 -4 -4 -5 -5 -5
6 6 6 6 5 5 5 4 4 3 3 2 2 1 -0 -1 -1 -2 -2 -2 -2 -2 -2 -3 -3 -4 -4 -5 -5 -5 -5 -5
5 5 5 5 5 4 4 4 3 3 2 2 1 -0 -1 -2 -3 -3 -3 -3 -2 -2 -3 -4 -5 -5 -6 -6 -5 -5 -5 -6
5 5 4 4 4 4 3 3 3 2 1 0 -1 -2 -2 -3 -4 -3 -3 -3 -2 -2 -4 -5 -6 -6 -6 -6 -6 -6 -6 -6
3 3 3 3 3 3 3 3 2 1 -0 -1 -2 -2 -3 -3 -3 -3 -3 -2 -3 -3 -4 -5 -6 -6 -6 -7 -7 -6 -7 -7
4 3 3 3 2 2 2 2 1 -0 -1 -1 -3 -3 -3 -4 -3 -3 -3 -3 -3 -4 -5 -6 -7 -6 -7 -7 -7 -7 -7 -7
4 3 3 2 2 2 1 1 0 -1 -1 -3 -4 -4 -4 -3 -3 -3 -2 -3 -4 -5 -5 -7 -7 -7 -7 -7 -7 -7 -7 -8
4 4 3 3 1 1 1 0 -1 -2 -3 -4 -4 -4 -3 -3 -3 -3 -4 -4 -5 -5 -6 -7 -7 -7 -7 -7 -7 -7 -8 -9
3 3 3 2 1 0 -0 -1 -3 -3 -4 -4 -4 -4 -3 -3 -3 -4 -4 -5 -5 -5 -7 -7 -7 -7 -7 -7 -7 -7 -8 -9

GFSFLT1_700_temp_228.txt.gz
Temp
11 10 10 10 10 10 10 9 9 9 9 8 8 8 7 7 7 7 7 7 6 5 4 4 3 3 3 3 3 3 3 2
11 10 10 10 10 10 9 9 9 9 9 9 9 8 7 6 6 7 6 5 4 4 4 3 3 3 3 2 2 2 2 2
11 11 10 10 10 10 9 9 9 9 9 8 8 7 6 6 6 6 5 5 4 4 4 3 3 3 2 2 1 1 1 1
11 11 11 10 10 10 9 9 9 9 8 8 7 7 6 5 6 5 5 5 4 3 3 2 2 2 2 1 1 1 1 1
11 10 10 11 11 11 10 10 10 9 8 8 7 6 5 5 5 5 4 4 3 3 2 2 2 1 1 1 1 1 1 -1
10 10 10 11 10 10 10 9 9 9 8 7 6 5 5 4 4 4 4 3 3 2 2 1 1 1 0 1 1 1 0 -1
10 10 10 10 9 9 9 8 8 8 7 6 6 5 5 4 4 4 3 3 2 2 1 1 0 -0 -0 0 0 0 -0 -2
9 9 9 9 9 9 9 8 8 7 6 5 5 4 4 4 4 3 3 2 2 1 1 1 -0 -1 -1 -0 -0 -0 -1 -2
9 9 9 9 9 8 8 8 7 6 5 5 4 4 4 3 3 3 2 2 1 1 0 -1 -1 -1 -1 -1 -1 -1 -1 -2
8 7 8 8 7 7 7 7 6 5 5 4 4 4 3 3 3 2 2 1 0 -0 -1 -1 -2 -2 -1 -1 -1 -2 -2 -3
8 7 7 7 7 7 6 6 5 5 4 4 4 3 3 2 2 2 1 0 -1 -1 -1 -2 -2 -2 -2 -2 -2 -3 -4 -4
7 6 6 6 6 6 5 5 5 5 4 4 3 3 2 2 1 0 -0 -1 -2 -2 -3 -2 -2 -2 -3 -3 -4 -5 -6 -6
6 6 5 5 5 5 5 5 5 4 4 3 3 2 2 1 -0 -1 -1 -2 -2 -3 -3 -3 -2 -3 -3 -4 -5 -6 -6 -6
5 4 4 4 4 4 4 4 4 4 3 3 2 2 1 -0 -1 -2 -2 -3 -3 -3 -3 -2 -3 -3 -4 -5 -6 -6 -7 -7
5 4 5 5 4 3 3 3 3 3 3 2 1 1 -0 -1 -2 -2 -3 -4 -4 -3 -2 -2 -3 -4 -5 -5 -6 -6 -7 -7
5 5 5 5 5 4 3 3 3 2 2 1 -0 -1 -1 -2 -2 -3 -4 -4 -3 -3 -2 -3 -4 -5 -5 -6 -7 -7 -7 -7
5 5 5 5 5 5 4 3 2 2 1 0 -1 -2 -2 -3 -3 -4 -4 -3 -3 -3 -3 -4 -4 -5 -6 -7 -7 -7 -7 -7
5 4 5 5 4 4 4 3 2 1 0 -0 -1 -1 -2 -3 -4 -4 -3 -3 -3 -3 -4 -5 -5 -5 -6 -7 -7 -7 -7 -7
4 4 4 4 4 4 3 3 2 1 -0 -1 -1 -2 -3 -3 -4 -4 -3 -3 -4 -4 -5 -5 -5 -5 -6 -7 -7 -7 -7 -7

GFSFLT1_700_temp_231.txt.gz
Temp
11 10 10 9 8 10 10 10 10 9 9 9 9 9 8 8 8 7 7 7 7 6 6 5 4 4 4 3 4 4 4 3
11 10 10 9 9 10 10 10 10 9 9 9 9 9 8 8 7 7 6 6 6 5 5 5 4 4 4 3 3 3 3 3
11 10 10 10 10 10 10 10 9 9 9 9 9 8 7 7 7 7 7 6 5 5 5 4 4 3 3 3 3 3 2 2
11 11 11 10 10 10 9 9 9 9 9 9 8 8 7 7 7 7 6 5 4 4 4 4 3 4 3 2 2 2 2 2
11 11 10 10 10 10 10 9 9 10 9 9 9 8 7 7 6 6 5 5 5 5 4 4 3 3 2 2 2 2 1 1
10 10 10 10 10 10 10 10 10 10 9 9 8 8 7 6 6 5 4 4 4 4 4 3 3 2 2 2 1 0 0 0
10 10 11 11 11 11 10 10 10 9 9 9 8 7 6 6 5 4 4 4 4 4 3 3 2 2 1 1 0 -0 -0 -0
10 10 10 10 10 10 9 9 9 9 9 8 7 6 6 5 5 5 4 4 3 3 2 2 1 1 0 -0 -1 -1 -0 -0
9 9 9 9 9 9 9 9 9 8 8 8 7 6 5 5 5 4 4 4 3 2 2 1 1 0 -0 -1 -1 -1 -1 -1
9 9 9 9 8 8 8 8 8 8 8 7 6 5 5 5 4 4 4 3 3 2 1 1 -0 -1 -1 -1 -1 -1 -2 -2
9 8 8 7 7 8 7 7 7 7 7 6 5 5 5 4 4 3 3 2 2 1 1 -0 -1 -1 -1 -1 -2 -2 -2 -2
7 7 7 7 7 7 6 6 6 6 6 6 5 5 4 4 3 3 2 2 1 1 0 -1 -1 -1 -2 -2 -2 -2 -3 -3
6 5 6 6 7 6 6 6 5 5 5 5 5 4 4 3 3 2 1 1 1 -0 -1 -2 -2 -2 -2 -3 -3 -3 -4 -4
7 6 5 4 5 6 6 5 5 5 4 4 4 4 3 3 2 1 1 0 -0 -1 -2 -2 -2 -3 -3 -3 -3 -4 -4 -5
6 5 4 3 6 5 5 5 5 4 4 4 3 3 2 2 1 1 -0 -1 -1 -2 -3 -2 -3 -3 -3 -3 -3 -4 -5 -5
5 4 4 4 4 5 6 5 5 5 4 3 3 2 2 1 1 -0 -2 -3 -2 -3 -3 -3 -3 -3 -3 -3 -4 -5 -5 -6
6 5 4 3 5 5 5 5 4 4 3 3 2 2 1 1 -0 -1 -2 -2 -3 -2 -4 -3 -3 -3 -4 -4 -4 -5 -6 -6
4 4 3 4 5 4 4 4 4 4 4 2 2 2 1 0 -0 -3 -2 -3 -3 -4 -3 -3 -3 -4 -5 -5 -5 -5 -6 -6
4 3 4 4 4 4 4 3 3 3 3 3 1 0 0 -0 -2 -2 -3 -3 -3 -3 -3 -3 -4 -5 -5 -5 -6 -6 -6 -6

GFSFLT1_700_temp_237.txt.gz
Temp
12 12 12 11 11 10 10 11 11 10 10 10 9 9 9 9 9 9 9 8 8 8 7 7 6 6 6 5 5 5 5 4
12 12 11 11 11 10 10 11 12 11 10 10 10 9 9 9 9 8 8 8 8 7 7 6 6 6 5 5 5 5 4 4
12 12 12 11 11 11 11 11 11 11 11 10 10 10 9 9 9 8 8 8 8 7 7 6 6 5 4 4 4 4 4 4
13 12 12 12 11 11 11 11 11 10 10 10 10 10 10 9 9 9 9 8 8 7 6 6 5 5 4 4 4 4 4 3
12 12 12 12 11 11 11 11 10 10 10 10 10 10 10 9 9 9 8 8 7 6 6 5 5 4 3 3 4 3 3 2
13 12 12 12 11 10 10 10 10 10 11 11 10 10 10 10 9 8 8 7 7 6 6 5 4 4 2 3 3 3 2 2
13 13 12 12 12 11 11 10 10 10 10 10 10 9 9 9 9 8 8 7 7 6 5 5 4 2 1 3 3 3 2 2
12 12 12 12 11 11 10 10 10 9 9 9 9 9 9 9 9 8 8 8 6 6 5 4 4 2 3 3 3 2 2 1
12 12 11 11 10 10 10 9 9 9 9 9 8 8 8 8 8 7 8 6 6 5 5 4 3 3 3 3 2 2 1 0
11 11 10 10 10 9 9 9 9 9 9 8 8 8 7 7 7 7 7 5 4 4 4 4 3 3 2 2 2 1 0 -1
10 10 9 9 9 9 9 9 9 8 8 8 8 7 7 7 7 7 5 6 5 4 4 4 3 2 2 1 1 0 -0 -1
9 9 8 9 9 8 8 9 8 8 8 8 7 8 7 6 6 6 6 4 4 4 4 3 2 2 1 1 0 -0 -1 -2
9 8 8 8 8 8 8 9 8 8 8 7 6 6 6 6 6 5 5 4 4 4 3 2 1 1 1 -0 -1 -2 -3 -2
8 8 8 8 8 7 7 7 7 7 7 7 6 6 6 5 5 4 4 3 3 3 2 1 0 -0 -1 -2 -2 -3 -4 -3
8 8 8 8 8 7 7 7 6 6 6 6 6 6 5 5 4 4 3 2 2 2 1 -1 -2 -2 -3 -4 -3 -4 -3 -3
8 8 8 8 8 7 7 7 6 5 5 5 6 5 5 5 4 3 2 2 1 1 -0 -1 -1 -2 -3 -4 -3 -4 -4 -4
8 8 8 8 8 7 7 6 5 6 5 5 5 4 4 4 3 2 2 1 1 0 -1 -2 -2 -3 -4 -3 -5 -5 -4 -4
7 7 7 7 7 7 6 6 6 6 5 4 4 4 4 3 3 2 2 1 -0 -0 -1 -2 -2 -4 -3 -4 -6 -4 -4 -4
6 7 7 7 7 6 6 6 6 5 5 4 4 4 3 3 2 1 1 -0 -1 -1 -2 -3 -5 -4 -4 -6 -5 -4 -4 -4

GFSFLT1_700_temp_240.txt.gz
Temp
13 12 12 12 11 11 11 10 10 10 10 10 10 10 10 10 10 9 9 9 8 8 8 7 7 7 7 6 6 5 5 4
13 12 12 12 12 11 11 11 11 11 11 10 10 10 9 9 9 9 9 8 8 8 8 7 7 7 6 6 5 5 4 4
13 13 12 12 12 11 11 11 11 11 11 10 10 9 9 9 9 9 9 9 8 8 8 7 6 6 6 6 5 4 4 3
12 13 13 12 12 12 11 11 11 11 10 10 10 10 9 9 9 9 9 9 8 8 7 7 6 6 6 5 4 4 2 2
12 13 13 12 12 12 11 11 11 10 10 10 10 10 9 9 8 8 9 8 7 7 7 6 6 6 6 5 4 3 1 2
13 13 12 12 12 12 11 11 11 10 10 10 9 9 9 9 9 9 8 8 7 7 7 6 6 6 5 3 4 3 2 2
13 13 12 12 12 12 11 11 11 10 10 10 10 9 9 9 8 8 8 8 8 7 7 6 6 6 5 4 4 2 2 0
13 12 12 12 11 11 11 10 10 10 9 10 9 9 9 9 9 8 8 7 8 8 7 7 6 5 4 5 1 3 1 1
12 12 11 11 11 11 10 11 10 10 9 9 8 8 8 8 8 8 8 8 8 7 7 7 5 4 4 4 1 2 1 0
11 11 11 11 11 10 10 10 10 9 9 8 8 7 7 8 7 7 7 7 7 6 6 5 4 4 4 3 0 1 0 -0
10 10 10 10 10 10 10 9 9 9 9 9 8 7 7 7 7 7 6 6 5 5 4 4 4 4 4 2 1 0 0 -0
10 10 10 9 9 9 9 8 8 8 8 8 7 7 7 7 7 6 6 5 5 4 4 4 3 4 2 3 1 0 0 -0
9 9 9 9 8 8 8 8 8 8 8 7 7 7 6 6 6 6 5 5 4 3 4 4 3 3 2 1 1 -0 -0 -1
9 9 8 8 8 8 8 8 8 8 7 7 6 6 6 6 6 6 6 5 4 4 3 3 2 2 1 1 -0 -1 -1 -1
8 8 8 8 8 8 8 8 8 7 7 7 6 6 6 6 6 5 5 5 6 3 2 1 1 1 1 0 -1 -2 -2 -3
8 8 8 8 7 7 7 7 7 7 7 6 6 5 5 5 5 5 5 4 4 3 3 1 0 1 -0 -1 -1 -2 -3 -3
6 6 7 7 7 7 8 8 7 7 6 6 5 5 5 5 5 5 4 4 3 2 1 -0 0 -0 -0 -0 -2 -3 -3 -3
6 6 6 6 7 7 7 7 7 7 6 6 5 5 5 5 4 4 4 3 2 2 0 -0 -1 -1 -1 -1 -3 -4 -4 -4
6 6 6 6 6 6 6 6 6 6 6 5 5 5 4 4 4 4 3 2 1 0 -0 -0 -1 -1 -1 -2 -3 -3 -4 -4

GFSFLT1_700_temp_243.txt.gz
Temp
13 13 12 12 12 12 11 11 10 10 10 10 10 10 10 10 9 9 9 9 9 9 9 8 8 8 8 7 7 6 6 6
13 13 12 12 12 12 11 11 11 11 10 10 10 10 10 10 9 9 9 9 9 8 8 8 8 8 7 7 6 6 6 5
12 12 12 12 12 12 12 11 11 11 11 10 10 10 10 10 9 9 8 8 8 8 8 8 8 7 7 6 6 6 5 4
13 13 13 13 12 12 12 12 11 11 11 10 10 10 10 9 9 8 8 8 8 8 7 7 7 7 6 6 5 5 5 4
13 13 13 13 12 12 12 12 11 11 11 10 10 10 9 9 9 8 8 8 8 7 7 7 7 6 5 5 5 4 4 3
14 13 13 13 12 12 12 12 12 11 11 10 10 9 9 9 8 8 8 7 7 7 6 6 6 5 5 5 3 5 3 4
13 13 13 13 12 12 12 12 11 11 10 10 10 9 9 8 8 8 7 7 7 7 7 7 7 5 5 4 4 4 3 4
12 13 12 12 12 12 11 12 11 11 10 10 9 9 9 8 8 8 8 8 8 8 8 7 5 4 5 4 4 3 4 3
11 11 11 11 11 11 10 10 10 10 10 10 9 9 9 8 8 8 8 8 8 8 7 6 7 6 5 4 3 4 3 2
10 10 10 10 10 10 10 10 10 10 10 9 9 8 9 8 7 7 7 8 7 7 7 7 6 5 5 4 4 3 2 1
10 10 9 9 9 9 9 9 9 9 9 8 8 7 7 7 7 7 7 8 7 7 7 6 5 5 4 4 4 3 2 2
9 9 9 9 9 9 9 9 9 8 8 8 8 8 7 7 7 7 6 6 6 6 6 5 5 4 4 3 3 2 2 1
9 9 9 8 8 8 8 8 8 8 8 8 8 7 7 7 7 6 6 6 6 6 5 5 4 4 5 4 2 2 1 1
9 8 8 8 8 8 8 8 8 8 8 8 7 7 7 7 6 6 6 6 6 5 5 5 4 3 3 2 2 1 0 -0
8 7 7 8 8 8 7 7 7 7 7 7 7 7 7 6 6 6 5 5 5 5 4 3 4 2 2 1 1 -0 0 0
6 6 6 7 7 7 7 7 7 7 7 7 7 7 6 6 6 5 5 5 5 4 4 4 3 3 2 -0 -1 -0 0 -0
6 6 6 6 6 6 7 7 6 7 7 7 7 6 6 6 5 5 5 4 4 4 4 4 3 3 2 0 -1 -1 -0 -1
5 6 6 6 6 6 6 6 6 6 6 6 6 6 6 5 5 4 4 4 4 4 3 3 2 1 -0 -1 -1 -1 -1 -1
4 5 5 6 6 6 6 5 5 5 5 5 5 5 4 4 3 3 3 3 2 2 2 2 1 -1 -1 -1 -0 -0 -1 -1

GFSFLT1_700_temp_246.txt.gz
Temp
12 12 12 13 12 12 11 10 11 10 10 10 10 9 10 10 10 9 9 9 9 9 9 8 8 8 8 8 7 7 7 7
12 12 12 13 12 12 12 11 11 11 10 10 10 10 10 10 9 9 9 9 9 8 8 8 8 8 8 7 7 7 7 6
12 12 12 12 12 12 12 12 11 11 11 11 10 10 10 9 9 9 9 8 8 7 7 7 7 7 7 7 6 6 6 6
12 13 12 13 12 12 12 12 12 11 11 11 11 10 10 10 10 9 8 7 7 7 7 6 6 6 6 6 6 5 5 5
13 13 13 13 13 13 12 12 12 12 11 11 11 11 10 10 9 8 8 7 7 7 6 6 6 6 6 6 6 5 4 4
13 13 13 13 12 13 12 12 12 12 11 11 11 11 10 9 9 8 7 7 7 7 7 7 7 6 5 5 5 4 4 4
12 13 13 12 12 13 12 12 12 11 11 11 10 10 10 9 9 8 7 7 8 7 7 7 7 6 6 4 5 4 4 4
12 12 12 12 12 12 11 11 11 11 11 11 11 10 10 9 8 8 8 8 8 8 7 8 7 7 6 6 4 4 4 4
10 10 10 10 10 10 10 10 10 10 10 10 10 9 9 9 9 8 8 7 7 7 7 8 7 6 6 6 5 5 3 4
9 9 9 9 9 9 9 9 9 9 9 9 10 9 8 8 8 8 8 7 7 7 7 7 7 6 6 6 4 5 4 3
10 9 9 9 9 9 9 8 8 8 8 9 9 9 8 8 7 7 7 7 7 6 6 6 6 6 5 4 4 4 4 3
9 9 9 9 9 9 8 9 8 8 8 8 8 8 8 8 7 7 7 6 6 6 6 6 6 6 6 5 5 4 3 3
9 9 9 9 9 9 8 8 8 8 8 8 8 8 7 7 7 7 6 6 6 6 5 5 5 6 5 5 5 4 4 2
9 9 9 8 7 7 8 8 8 8 8 8 8 7 7 7 7 7 6 6 6 5 5 5 5 5 5 5 4 4 2 2
8 9 8 8 6 6 7 7 7 8 8 7 7 7 7 7 7 6 6 6 6 5 5 4 4 4 4 4 3 3 1 2
8 8 7 6 6 6 6 6 6 7 7 7 7 6 6 7 6 6 6 6 5 5 4 4 3 3 3 3 3 3 1 -1
6 6 5 5 5 5 6 6 6 6 6 6 6 6 6 6 7 6 6 4 4 4 4 4 3 3 2 2 1 1 -1 -1
4 3 4 4 5 5 5 5 5 6 6 5 6 6 6 6 6 6 5 4 4 4 4 3 3 2 2 1 1 -0 -1 -0
3 3 4 4 4 4 4 4 5 5 5 5 5 4 4 4 4 5 5 5 4 4 3 3 3 2 1 0 1 -0 -1 -1